Weather History for KDMW - February, 2014

Change the Weather History Date:

Friday, February 14, 2014

  Actual Average (KTHV) Record (KTHV)
Temperature  
Mean Temperature 35 °F -  
Max Temperature 42 °F 0 °F 57 °F (2011)
Min Temperature 28 °F - 9 °F (2002)
Degree Days  
Heating Degree Days 30    
Moisture  
Dew Point 24 °F    
Average Humidity 64    
Maximum Humidity 87    
Minimum Humidity 48    
Precipitation  
Precipitation 0.02 in - - ()
Sea Level Pressure  
Sea Level Pressure 29.57 in    
Wind  
Wind Speed 11 mph (WNW)    
Max Wind Speed 24 mph    
Max Gust Speed 31 mph    
Visibility 9 miles    
Events Snow    
Averages and records for this station are not official NWS values.
T = Trace of Precipitation, MM = Missing Value Source: NWS Daily Summary

Daily Weather History Graph

Daily Weather History Graph

Search for Another Location

Airport or City:

Trip Planner

Search our weather history database for the weather conditions in past years. The results will help you decide how hot, cold, wet, or windy it might be!

Date:

Astronomy

Feb. 14, 2014 Rise Set
Actual Time 7:01 AM EST 5:43 PM EST
Civil Twilight 6:33 AM EST 6:11 PM EST
Nautical Twilight 6:02 AM EST 6:42 PM EST
Astronomical Twilight 5:31 AM EST 7:13 PM EST
Moon 5:45 PM EST (2/14) 6:27 AM EST (2/14)
Length of Visible Light 11h 37m
Length of Day
10h 41m
Full, 100% of the Moon is Illuminated
Feb 14
Full
Feb 14
Full
Feb 22
Last Quarter
Mar 1
New
Mar 8
First Quarter

Hourly Weather History & Observations

Time (EST) Temp. Windchill Dew Point Humidity Pressure Visibility Wind Dir Wind Speed Gust Speed Precip Events Conditions
12:00 AM 33.8 °F 23.2 °F 30.2 °F 87% 29.32 in 7.0 mi NW 17.3 mph 24.2 mph N/A   Mostly Cloudy
12:20 AM 33.8 °F 25.3 °F 30.2 °F 87% 29.33 in 7.0 mi NW 11.5 mph 19.6 mph 0.01 in Snow Light Snow
12:40 AM 33.8 °F 24.8 °F 30.2 °F 87% 29.34 in 10.0 mi WNW 12.7 mph 21.9 mph 0.01 in   Overcast
1:00 AM 33.8 °F 23.9 °F 30.2 °F 87% 29.35 in 5.0 mi WNW 15.0 mph 24.2 mph 0.01 in   Overcast
1:20 AM 35.6 °F 26.6 °F 30.2 °F 81% 29.37 in 10.0 mi WNW 13.8 mph 20.7 mph 0.01 in   Overcast
1:40 AM 33.8 °F 24.3 °F 28.4 °F 81% 29.37 in 10.0 mi WNW 13.8 mph 21.9 mph 0.01 in   Overcast
2:00 AM 33.8 °F 24.3 °F 28.4 °F 81% 29.39 in 7.0 mi West 13.8 mph 23.0 mph N/A   Scattered Clouds
2:20 AM 32.0 °F 21.6 °F 26.6 °F 80% 29.40 in 5.0 mi West 15.0 mph 26.5 mph N/A   Haze
2:40 AM 30.2 °F 19.3 °F 23.0 °F 75% 29.42 in 7.0 mi West 15.0 mph 21.9 mph N/A   Clear
3:00 AM 30.2 °F 18.9 °F 21.2 °F 69% 29.42 in 4.0 mi WNW 16.1 mph 25.3 mph N/A   Haze
3:20 AM 30.2 °F 16.5 °F 19.4 °F 64% 29.43 in 2.5 mi WNW 24.2 mph 31.1 mph N/A Snow Light Snow
3:40 AM 30.2 °F 18.1 °F 19.4 °F 64% 29.44 in 4.0 mi WNW 18.4 mph 24.2 mph N/A Snow Light Snow
4:00 AM 30.2 °F 18.1 °F 19.4 °F 64% 29.44 in 4.0 mi WNW 18.4 mph 25.3 mph N/A   Haze
4:20 AM 30.2 °F 20.2 °F 19.4 °F 64% 29.44 in 10.0 mi West 12.7 mph 19.6 mph N/A   Clear
4:40 AM 30.2 °F 20.8 °F 19.4 °F 64% 29.45 in 10.0 mi West 11.5 mph - N/A   Clear
5:00 AM 28.4 °F 18.5 °F 19.4 °F 69% 29.45 in 10.0 mi WNW 11.5 mph 17.3 mph N/A   Clear
5:20 AM 30.2 °F 20.2 °F 17.6 °F 60% 29.46 in 7.0 mi WNW 12.7 mph 18.4 mph N/A   Clear
5:40 AM 30.2 °F 20.8 °F 17.6 °F 60% 29.46 in 10.0 mi West 11.5 mph - N/A   Scattered Clouds
6:00 AM 30.2 °F 20.2 °F 15.8 °F 55% 29.46 in 10.0 mi West 12.7 mph 23.0 mph N/A   Scattered Clouds
6:20 AM 32.0 °F 27.5 °F 15.8 °F 51% 29.47 in 10.0 mi WSW 4.6 mph - N/A   Clear
6:40 AM 32.0 °F 27.5 °F 15.8 °F 51% 29.48 in 10.0 mi West 4.6 mph - N/A   Mostly Cloudy
7:00 AM 32.0 °F 24.8 °F 15.8 °F 51% 29.49 in 10.0 mi West 8.1 mph - N/A   Overcast
7:20 AM 33.8 °F 29.6 °F 15.8 °F 48% 29.50 in 10.0 mi West 4.6 mph - N/A   Overcast
7:40 AM 32.0 °F 23.6 °F 17.6 °F 55% 29.51 in 10.0 mi West 10.4 mph 17.3 mph N/A Snow Light Snow
8:00 AM 33.8 °F 23.5 °F 19.4 °F 56% 29.52 in 10.0 mi West 16.1 mph - N/A   Mostly Cloudy
8:25 AM 33.8 °F 25.3 °F 19.4 °F 56% 29.53 in 7.0 mi West 11.5 mph - N/A   Mostly Cloudy
8:45 AM 35.6 °F 27.1 °F 21.2 °F 56% 29.54 in 10.0 mi WSW 12.7 mph 19.6 mph N/A   Scattered Clouds
9:05 AM 35.6 °F 27.5 °F 21.2 °F 56% 29.54 in 7.0 mi WSW 11.5 mph - N/A   Scattered Clouds
9:25 AM 35.6 °F 28.0 °F 21.2 °F 56% 29.54 in 10.0 mi WSW 10.4 mph 18.4 mph N/A   Overcast
9:45 AM 35.6 °F 28.6 °F 23.0 °F 60% 29.55 in 10.0 mi WSW 9.2 mph - N/A   Overcast
10:05 AM 37.4 °F 29.8 °F 24.8 °F 60% 29.55 in 10.0 mi WSW 11.5 mph 18.4 mph N/A   Overcast
10:25 AM 37.4 °F 30.3 °F 24.8 °F 60% 29.56 in 10.0 mi WSW 10.4 mph 16.1 mph N/A   Overcast
10:45 AM 37.4 °F 30.3 °F 26.6 °F 65% 29.57 in 10.0 mi West 10.4 mph - 0.01 in   Overcast
11:05 AM 39.2 °F 33.6 °F 26.6 °F 61% 29.57 in 10.0 mi West 8.1 mph - N/A   Overcast
11:25 AM 39.2 °F 31.6 °F 26.6 °F 61% 29.58 in 10.0 mi WNW 12.7 mph 20.7 mph N/A   Overcast
11:45 AM 39.2 °F 31.2 °F 26.6 °F 61% 29.58 in 10.0 mi WNW 13.8 mph 20.7 mph N/A   Overcast
12:05 PM 39.2 °F 31.2 °F 26.6 °F 61% 29.58 in 10.0 mi WNW 13.8 mph 19.6 mph N/A   Scattered Clouds
12:25 PM 39.2 °F 33.6 °F 26.6 °F 61% 29.59 in 10.0 mi West 8.1 mph - N/A   Scattered Clouds
12:45 PM 39.2 °F 33.0 °F 26.6 °F 61% 29.58 in 10.0 mi WNW 9.2 mph 19.6 mph N/A   Scattered Clouds
1:05 PM 41.0 °F 33.1 °F 26.6 °F 57% 29.59 in 10.0 mi WNW 15.0 mph 20.7 mph N/A   Clear
1:25 PM 41.0 °F 32.8 °F 26.6 °F 57% 29.59 in 10.0 mi WNW 16.1 mph 23.0 mph N/A   Clear
1:45 PM 41.0 °F 33.1 °F 26.6 °F 57% 29.59 in 10.0 mi West 15.0 mph 21.9 mph N/A   Clear
2:05 PM 41.0 °F 33.1 °F 26.6 °F 57% 29.59 in 10.0 mi West 15.0 mph - N/A   Clear
2:25 PM 41.0 °F 32.5 °F 26.6 °F 57% 29.58 in 10.0 mi West 17.3 mph 23.0 mph N/A   Clear
2:45 PM 42.8 °F 36.6 °F 24.8 °F 49% 29.60 in 10.0 mi West 11.5 mph 21.9 mph N/A   Clear
3:05 PM 42.8 °F 36.6 °F 24.8 °F 49% 29.61 in 10.0 mi West 11.5 mph 26.5 mph N/A   Clear
3:25 PM 42.8 °F 36.2 °F 24.8 °F 49% 29.61 in 10.0 mi West 12.7 mph - N/A   Clear
3:45 PM 41.0 °F 34.7 °F 26.6 °F 57% 29.62 in 10.0 mi West 10.4 mph - N/A   Clear
4:05 PM 41.0 °F 39.0 °F 26.6 °F 57% 29.63 in 10.0 mi WNW 3.5 mph - N/A   Clear
4:25 PM 41.0 °F - 23.0 °F 49% 29.65 in 10.0 mi Calm Calm - N/A   Clear
4:45 PM 41.0 °F 39.0 °F 24.8 °F 53% 29.65 in 10.0 mi West 3.5 mph - N/A   Clear
5:05 PM 41.0 °F 37.1 °F 24.8 °F 53% 29.66 in 10.0 mi West 5.8 mph - N/A   Clear
5:25 PM 39.2 °F 34.2 °F 24.8 °F 56% 29.67 in 10.0 mi West 6.9 mph - N/A   Clear
5:45 PM 39.2 °F 34.2 °F 24.8 °F 56% 29.67 in 10.0 mi NNW 6.9 mph - N/A   Clear
6:05 PM 37.4 °F - 24.8 °F 60% 29.70 in 10.0 mi Calm Calm - N/A   Clear
6:25 PM 37.4 °F - 24.8 °F 60% 29.71 in 10.0 mi Calm Calm - N/A   Clear
6:45 PM 35.6 °F 32.8 °F 26.6 °F 70% 29.71 in 10.0 mi ESE 3.5 mph - N/A   Clear
7:05 PM 35.6 °F - 26.6 °F 70% 29.72 in 10.0 mi Calm Calm - N/A   Scattered Clouds
7:25 PM 33.8 °F 30.8 °F 26.6 °F 75% 29.72 in 10.0 mi East 3.5 mph - N/A   Overcast
7:45 PM 33.8 °F - 26.6 °F 75% 29.72 in 10.0 mi Calm Calm - N/A   Overcast
8:05 PM 33.8 °F 30.8 °F 26.6 °F 75% 29.72 in 10.0 mi ENE 3.5 mph - N/A   Overcast
8:20 PM 35.6 °F 32.8 °F 24.8 °F 65% 29.71 in 10.0 mi NE 3.5 mph - N/A   Overcast
8:45 PM 33.8 °F 30.8 °F 26.6 °F 75% 29.71 in 10.0 mi East 3.5 mph - N/A   Overcast
9:05 PM 33.8 °F - 26.6 °F 75% 29.71 in 10.0 mi Calm Calm - N/A   Overcast
9:25 PM 33.8 °F - 26.6 °F 75% 29.72 in 10.0 mi Calm Calm - N/A   Overcast
9:45 PM 35.6 °F - 26.6 °F 70% 29.72 in 7.0 mi Calm Calm - N/A   Overcast
10:05 PM 33.8 °F 30.8 °F 26.6 °F 75% 29.72 in 10.0 mi ENE 3.5 mph - N/A   Mostly Cloudy
10:25 PM 33.8 °F - 26.6 °F 75% 29.72 in 10.0 mi Calm Calm - N/A   Mostly Cloudy
10:45 PM 33.8 °F 29.6 °F 26.6 °F 75% 29.73 in 10.0 mi ENE 4.6 mph - N/A   Overcast
11:05 PM 33.8 °F - 28.4 °F 81% 29.72 in 10.0 mi Calm Calm - N/A   Overcast
11:25 PM 33.8 °F 30.8 °F 26.6 °F 75% 29.73 in 10.0 mi NNE 3.5 mph - N/A   Overcast
11:45 PM 35.6 °F 31.7 °F 26.6 °F 70% 29.72 in 10.0 mi ENE 4.6 mph - N/A   Overcast